CW5302 Weather Reports


Display with metric or nautical units.
time (UTC)temp
F
wind
direction
speed
MPH
gust
MPH
rain 1hr
in
rain 24hr
in
rain mn
in
humidity
%
barometer
mb
20260903042314 56 27 0.0 0.0 0.00 0.45 0.45 96 1008.4
20260903041314 56 27 0.0 0.0 0.00 0.45 0.45 96 1008.2
20260903040315 56 27 0.0 0.0 0.00 0.45 0.45 96 1008.2
20260903035315 56 27 0.0 0.0 0.00 0.45 0.45 96 1008.1
20260903034315 57 27 0.0 4.0 0.00 0.45 0.45 96 1007.7
20260903033313 57 331 0.0 0.0 0.00 0.45 0.45 96 1007.7
20260903032317 57 331 0.0 0.0 0.01 0.45 0.45 95 1007.5
20260903031318 57 331 0.0 0.0 0.02 0.45 0.45 95 1007.5
20260903030337 57 331 0.0 0.0 0.06 0.45 0.45 95 1007.5
20260903025315 57 331 0.0 0.0 0.08 0.45 0.45 94 1007.4
20260903024313 57 331 0.0 0.0 0.12 0.45 0.45 94 1007.3
20260903023313 57 331 0.0 0.0 0.12 0.45 0.45 93 1007.3
20260903022313 57 331 0.0 0.0 0.11 0.44 0.44 92 1007.3
20260903021313 57 306 0.0 4.0 0.10 0.43 0.43 90 1007.2
20260903020333 58 306 1.0 8.0 0.06 0.39 0.39 89 1007.2
20260903015350 59 300 3.0 13.0 0.04 0.37 0.37 86 1006.8
20260903014328 62 304 3.0 12.0 0.00 0.33 0.33 87 1006.6
20260903013328 62 124 0.0 0.0 0.00 0.33 0.33 87 1006.6
20260903012327 62 124 0.0 0.0 0.00 0.33 0.33 88 1006.5
20260903011328 62 124 0.0 0.0 0.00 0.33 0.33 84 1006.3
20260903010327 62 124 0.0 0.0 0.00 0.33 0.33 85 1006.3
20260903005325 62 124 0.0 5.0 0.00 0.33 0.33 84 1006.2
20260903004344 62 192 0.0 3.0 0.00 0.33 0.33 84 1006.2
20260903003324 63 200 0.0 7.0 0.00 0.33 0.33 82 1006.2
20260903002324 63 155 0.0 5.0 0.00 0.33 0.33 81 1006.2
20260903001323 63 115 0.0 2.0 0.00 0.33 0.33 82 1006.1
20260903000327 63 119 0.0 8.0 0.00 0.33 0.33 81 1006.1
20260902235324 63 118 1.0 8.0 0.00 0.33 0.33 81 1006.2
20260902234323 63 103 0.0 8.0 0.00 0.33 0.33 81 1006.2
20260902233323 63 157 0.0 5.0 0.00 0.33 0.33 82 1006.2
20260902232320 63 173 0.0 2.0 0.00 0.33 0.33 82 1006.2
20260902231319 63 144 0.0 0.0 0.00 0.33 0.33 82 1005.9
20260902230319 63 144 0.0 0.0 0.00 0.33 0.33 81 1005.9
20260902225319 62 130 0.0 1.0 0.01 0.33 0.33 84 1005.9
20260902224319 62 120 0.0 0.0 0.01 0.33 0.33 84 1005.9
20260902223339 62 148 0.0 0.0 0.01 0.33 0.33 83 1005.9
20260902222318 62 181 0.0 5.0 0.01 0.33 0.33 80 1005.9
20260902221315 63 187 0.0 5.0 0.01 0.33 0.33 81 1005.8
20260902220316 63 185 0.0 3.0 0.01 0.33 0.33 81 1005.8
20260902215315 63 173 0.0 3.0 0.00 0.32 0.32 80 1005.7
20260902214336 63 192 0.0 1.0 0.00 0.32 0.32 81 1005.7
20260902213314 63 191 0.0 5.0 0.00 0.32 0.32 78 1005.7
20260902212313 63 171 1.0 7.0 0.00 0.32 0.32 78 1005.6
20260902211313 63 154 0.0 8.0 0.00 0.32 0.32 80 1005.4
20260902210336 62 172 0.0 7.0 0.00 0.32 0.32 81 1005.4
20260902205314 62 169 0.0 11.0 0.00 0.32 0.32 80 1005.1
20260902204332 62 119 1.0 9.0 0.00 0.32 0.32 80 1005.1
20260902203315 62 159 4.0 11.0 0.00 0.32 0.32 81 1005.1
20260902202314 62 180 0.0 3.0 0.00 0.32 0.32 82 1005.1
20260902201331 62 254 0.0 8.0 0.00 0.32 0.32 81 1005.0
20260902200331 62 191 1.0 7.0 0.00 0.32 0.32 88 1005.0
20260902195329 61 157 0.0 3.0 0.01 0.32 0.32 86 1004.8
20260902194329 61 227 2.0 5.0 0.03 0.32 0.32 86 1004.8
20260902193328 60 150 1.0 3.0 0.04 0.32 0.32 87 1004.8
20260902192325 60 140 0.0 3.0 0.05 0.32 0.32 89 1004.8
20260902191325 60 65 1.0 5.0 0.06 0.32 0.32 92 1005.0
20260902190325 59 107 0.0 2.0 0.07 0.32 0.32 92 1005.0
20260902185326 59 165 0.0 1.0 0.07 0.31 0.31 92 1004.9
20260902184345 59 105 0.0 0.0 0.06 0.29 0.29 92 1004.7
20260902183324 59 105 0.0 0.0 0.06 0.28 0.28 91 1004.7
20260902182321 59 105 0.0 3.0 0.06 0.27 0.27 90 1004.7
20260902181320 59 13 0.0 1.0 0.06 0.26 0.26 90 1004.5
20260902180324 59 178 1.0 7.0 0.07 0.25 0.25 89 1004.5
20260902175323 59 142 0.0 11.0 0.07 0.24 0.24 87 1004.5
20260902174324 59 159 1.0 8.0 0.07 0.23 0.23 87 1004.5
20260902173320 59 142 0.0 3.0 0.09 0.22 0.22 89 1004.5
20260902172320 58 142 0.0 2.0 0.10 0.21 0.21 89 1004.4
20260902171318 59 146 0.0 7.0 0.11 0.20 0.20 87 1004.1
20260902170315 58 139 0.0 6.0 0.11 0.18 0.18 87 1004.1
20260902165315 58 161 5.0 13.0 0.11 0.17 0.17 87 1004.3
20260902164316 58 142 1.0 9.0 0.12 0.16 0.16 86 1004.3
20260902163317 58 123 1.0 3.0 0.10 0.13 0.13 88 1004.3
20260902162317 59 131 0.0 6.0 0.08 0.11 0.11 85 1004.2
20260902161317 59 136 2.0 11.0 0.07 0.09 0.09 85 1004.6
20260902160318 59 165 0.0 7.0 0.06 0.07 0.07 86 1004.6
20260902155316 59 161 0.0 0.0 0.06 0.06 0.06 86 1004.7
20260902154335 59 170 0.0 7.0 0.04 0.04 0.04 83 1005.0
20260902153353 59 158 1.0 7.0 0.03 0.03 0.03 83 1005.0
20260902152330 60 129 0.0 4.0 0.03 0.03 0.03 80 1005.1
20260902151313 60 136 0.0 5.0 0.02 0.02 0.02 78 1005.0
20260902150331 61 144 0.0 4.0 0.01 0.01 0.01 75 1005.0
20260902145351 62 159 0.0 0.0 0.00 0.00 0.00 74 1005.1
20260902144349 63 163 0.0 0.0 0.00 0.00 0.00 68 1005.1
20260902143328 62 163 0.0 0.0 0.00 0.00 0.00 64 1005.1
20260902142328 62 163 0.0 3.0 0.00 0.00 0.00 64 1005.1
20260902141325 61 161 0.0 4.0 0.00 0.00 0.00 66 1005.1
20260902140325 60 155 0.0 5.0 0.00 0.00 0.00 68 1005.1
20260902135325 58 135 0.0 2.0 0.00 0.00 0.00 75 1005.2
20260902134322 57 82 0.0 1.0 0.00 0.00 0.00 81 1005.5
20260902133322 57 81 0.0 0.0 0.00 0.00 0.00 83 1005.5
20260902132329 56 81 0.0 0.0 0.00 0.00 0.00 84 1005.6
20260902131327 56 81 0.0 0.0 0.00 0.00 0.00 85 1005.7
20260902130327 56 81 0.0 0.0 0.00 0.00 0.00 85 1005.7
20260902125325 55 81 0.0 0.0 0.00 0.00 0.00 85 1005.7
20260902124345 55 81 0.0 0.0 0.00 0.00 0.00 85 1006.0
20260902123322 55 81 0.0 0.0 0.00 0.00 0.00 85 1006.0
20260902122320 55 80 0.0 0.0 0.00 0.00 0.00 85 1006.2
20260902121341 55 81 0.0 0.0 0.00 0.00 0.00 85 1006.5
20260902120318 55 80 0.0 0.0 0.00 0.00 0.00 84 1006.5
20260902115315 56 81 0.0 0.0 0.00 0.00 0.00 84 1006.7
20260902114319 56 80 0.0 0.0 0.00 0.00 0.00 83 1006.8
20260902113319 56 80 0.0 0.0 0.00 0.00 0.00 83 1006.8
20260902112336 56 81 0.0 0.0 0.00 0.00 0.00 83 1007.0
20260902111314 56 120 0.0 1.0 0.00 0.00 0.00 84 1006.7
20260902110313 55 286 0.0 1.0 0.00 0.00 0.00 84 1006.7
20260902105333 56 286 0.0 0.0 0.00 0.00 0.00 83 1007.2
20260902104312 56 286 0.0 0.0 0.00 0.00 0.00 82 1007.3
20260902103331 57 286 0.0 0.0 0.00 0.00 0.00 81 1007.3
20260902102349 57 286 0.0 0.0 0.00 0.00 0.00 80 1007.3
20260902101327 58 286 0.0 0.0 0.00 0.00 0.00 79 1007.3
20260902100326 58 286 0.0 0.0 0.00 0.00 0.00 79 1007.3
20260902095323 58 286 0.0 0.0 0.00 0.00 0.00 79 1007.7
20260902094324 58 286 0.0 0.0 0.00 0.00 0.00 78 1007.8
20260902093323 58 286 0.0 0.0 0.00 0.00 0.00 79 1007.8
20260902092323 58 286 0.0 0.0 0.00 0.00 0.00 78 1008.0
20260902091322 58 286 0.0 0.0 0.00 0.00 0.00 78 1008.0
20260902090322 59 286 0.0 0.0 0.00 0.00 0.00 78 1008.0
20260902085341 59 286 0.0 0.0 0.00 0.00 0.00 78 1008.2
20260902084317 59 286 0.0 0.0 0.00 0.00 0.00 78 1008.3
20260902083321 59 286 0.0 0.0 0.00 0.00 0.00 78 1008.3
20260902082319 59 286 0.0 0.0 0.00 0.00 0.00 78 1008.3
20260902081320 59 286 0.0 0.0 0.00 0.00 0.00 78 1008.3
20260902080320 59 286 0.0 0.0 0.00 0.00 0.00 79 1008.3
20260902075318 59 286 0.0 0.0 0.00 0.00 0.00 79 1008.2
20260902074316 59 286 0.0 0.0 0.00 0.00 0.00 81 1008.3
20260902073319 59 286 0.0 0.0 0.00 0.00 0.00 81 1008.3
20260902072318 58 286 0.0 0.0 0.00 0.00 0.00 81 1008.3
20260902071317 58 286 0.0 0.0 0.00 0.00 0.00 82 1008.3
20260902070316 58 286 0.0 0.0 0.00 0.00 0.00 82 1008.3
20260902065335 58 286 0.0 0.0 0.00 0.00 0.00 83 1008.4
20260902064312 58 286 0.0 0.0 0.00 0.00 0.00 84 1008.6
20260902063331 58 286 0.0 0.0 0.00 0.00 0.00 84 1008.6
20260902062330 57 286 0.0 0.0 0.00 0.00 0.00 84 1008.8
20260902061411 57 286 0.0 0.0 0.00 0.00 0.00 83 1008.8
20260902061329 57 286 0.0 0.0 0.00 0.00 0.00 83 1008.8
20260902060329 58 286 0.0 0.0 0.00 0.00 0.00 83 1008.8
20260902055325 58 286 0.0 0.0 0.00 0.00 0.00 82 1008.9
20260902054325 59 286 0.0 0.0 0.00 0.00 0.00 81 1009.1
20260902053344 59 286 0.0 0.0 0.00 0.00 0.00 80 1009.1
20260902052326 60 286 0.0 0.0 0.00 0.00 0.00 79 1009.2
20260902051325 60 286 0.0 0.0 0.00 0.00 0.00 78 1009.3
20260902050324 61 286 0.0 0.0 0.00 0.00 0.00 77 1009.3
20260902045323 61 286 0.0 0.0 0.00 0.00 0.00 77 1009.3
20260902044322 62 286 0.0 0.0 0.00 0.00 0.00 75 1009.1
20260902043342 62 286 0.0 0.0 0.00 0.00 0.00 72 1009.1